{"data":{"norad_id":58775,"epoch":"2026-09-20T11:47:16.809792Z","epoch_age_seconds":153286,"freshness":"FRESH","line1":"1 58775U 24011L   26263.49116678 -.00000085  00000+0  86124-5 0  9990","line2":"2 58775  53.1604 185.4096 0000980  83.3301 276.7813 15.34391404 23396","mean_motion":15.34391404,"eccentricity":9.8e-5,"inclination_deg":53.1604,"raan_deg":185.4096,"arg_perigee_deg":83.3301,"mean_anomaly_deg":276.7813,"bstar":8.6124e-6,"rev_number":2339,"period_min":93.848283837231,"perigee_km":462.05838460254,"apogee_km":463.39919429727,"semimajor_km":6840.8657894499,"source":"CELESTRAK","updated_at":"2026-09-21T09:00:33.958462Z"}}